Location: Diati
(11.8376°N, 2.5966°E)
Time: 17:44:47
(UTC+00:00)

Cosmos 1300 Rocket - Pass Details

Date: 21 September 2020
Orbit: 602 x 626 km, 82.5° (Epoch: 19 October)

Event Time Altitude Azimuth Distance (km) Brightness Sun altitude
Rises 18:53:42 0° 192° (SSW) 2,863 7.1 -17.4°
Reaches altitude 10° 18:55:56 10° 197° (SSW) 1,963 6.3 -17.9°
Maximum altitude 19:00:12 55° 275° (W) 740 4.3 -18.9°
Drops below altitude 10° 19:04:29 10° 353° (N) 1,978 6.3 -20.0°
Sets 19:06:45 0° 357° (N) 2,887 7.1 -20.5°
